Weather past 2 weeks in Adamstown, Pitcairn Islands

Now
67 °F

Partly sunny.


Feels Like: 67 °F
Forecast: 69 / 71 °F
Wind: 12 mph from South

Location: Rikitea

Current Time: Oct 1, 2014 at 4:51:31 PM

Latest Report: Oct 1, 2014 at 4:00 PM


Visibility: 31 mi

Pressure: 29.97 "Hg

Humidity: 64%

Dew point: 55 °F

Location of AdamstownLocation

Historic Weather in Adamstown — Graph

°F

Adamstown temperature yesterday

Maximum temperature yesterday: 77 °F (at 1:00 PM)
Minimum temperature yesterday: 67 °F (at 7:00 PM)
Average temperature yesterday: 72 °F

Past Weeks' High & Low Weather Summary

 TemperatureHumidityPressure
High80 °F (Sep 25, 1:00 PM)97% (Sep 17, 5:00 AM)30.17 "Hg (Sep 17, 5:00 AM)
Low64 °F (Sep 17, 7:00 AM)58% (Oct 1, 12:00 PM)29.85 "Hg (Sep 30, 4:00 PM)
Average72 °F84%30.07 "Hg
* Reported Sep 16 3:00 PM — Oct 1 3:00 PM, Adamstown, Weather by CustomWeather, © 2014

Note: Actual official high and low records may vary slightly from our data, if they occured in-between our weather recording intervals... More about our weather records

Advertising

Adamstown weather history for previous 24 hours

 ConditionsComfort  
Time TempWeatherWind HumidityBarometerVisibility
3:00 PM
Oct 1
69 °FPassing clouds.12 mph59%29.97 "Hg31 mi
2:00 PM69 °FPassing clouds.12 mph59%29.98 "Hg31 mi
1:00 PM70 °FPassing clouds.13 mph58%29.99 "Hg31 mi
12:00 PM69 °FPassing clouds.14 mph58%30.00 "Hg31 mi
11:00 AM68 °FScattered clouds.16 mph65%30.01 "Hg25 mi
10:00 AM68 °FPassing clouds.15 mph65%30.00 "Hg25 mi
9:00 AM68 °FPassing clouds.16 mph64%29.99 "Hg19 mi
8:00 AM67 °FOvercast.18 mph71%29.97 "Hg19 mi
7:00 AM66 °FOvercast.16 mph74%29.95 "Hg19 mi
6:00 AM66 °FMild.18 mph78%29.93 "HgN/A
5:00 AM65 °FMild.16 mph84%29.90 "HgN/A
4:00 AM65 °FMild.18 mph91%29.90 "HgN/A
3:00 AM66 °FMild.15 mph88%29.90 "HgN/A
2:00 AM69 °FMild.12 mph82%29.90 "HgN/A
1:00 AM69 °FMild.9 mph82%29.89 "HgN/A
12:00 AM68 °FMild.8 mph80%29.91 "HgN/A
11:00 PM
Sep 30
69 °FMild.9 mph86%29.91 "HgN/A
10:00 PM68 °FMild.10 mph93%29.91 "HgN/A
9:00 PM69 °FMild.7 mph94%29.90 "HgN/A
8:00 PM69 °FMild.3 mph94%29.89 "HgN/A
7:00 PM67 °FMild.5 mph94%29.89 "HgN/A
6:00 PM72 °FOvercast.3 mph84%29.86 "Hg7 mi
5:00 PM75 °FScattered clouds.2 mph78%29.85 "Hg25 mi
4:00 PM76 °FScattered clouds.2 mph76%29.85 "Hg25 mi
Weather by CustomWeather, © 2014

See weather overviewHow to use our weather pages